Tiempo cada hora Goiás

Hoy, 3 Diciembre, Jueves

Tiempo Temperatura Precipitaciones Viento Presión Humedad
00:00 +26°C° 0 mm 1 mps 714 mmHg 61%
01:00 +25°C° 0 mm 1 mps 714 mmHg 62%
02:00 +25°C° 0 mm 1 mps 714 mmHg 64%
03:00 +24°C° 0 mm 1 mps 713 mmHg 65%
04:00 +24°C° 0 mm 1 mps 713 mmHg 66%
05:00 +24°C° 0 mm 1 mps 714 mmHg 68%
06:00 +24°C° 0 mm 1 mps 714 mmHg 69%
07:00 +26°C° 0 mm 1 mps 715 mmHg 61%
08:00 +29°C° 0 mm 1 mps 716 mmHg 54%
09:00 +32°C° 0 mm 2 mps 716 mmHg 46%
10:00 +34°C° 0 mm 2 mps 716 mmHg 42%
11:00 +36°C° 0 mm 3 mps 716 mmHg 38%
12:00 +37°C° 0 mm 3 mps 716 mmHg 34%
13:00 +37°C° 0 mm 3 mps 715 mmHg 34%
14:00 +37°C° 0 mm 3 mps 714 mmHg 33%
15:00 +37°C° 0 mm 2 mps 713 mmHg 33%
16:00 +36°C° 0 mm 2 mps 713 mmHg 39%
17:00 +34°C° 0 mm 2 mps 713 mmHg 46%
18:00 +31°C° 0 mm 2 mps 713 mmHg 52%
19:00 +30°C° 0 mm 2 mps 713 mmHg 53%
20:00 +29°C° 0 mm 2 mps 714 mmHg 53%
21:00 +27°C° 0 mm 1 mps 714 mmHg 54%
22:00 +27°C° 0 mm 1 mps 715 mmHg 53%
23:00 +27°C° 0 mm 1 mps 715 mmHg 51%

Mañana, 4 Diciembre, Viernes

Tiempo Temperatura Precipitaciones Viento Presión Humedad
00:00 +27°C° 0 mm 1 mps 715 mmHg 50%
01:00 +27°C° 0 mm 1 mps 715 mmHg 51%
02:00 +27°C° 0 mm 1 mps 714 mmHg 52%
03:00 +24°C° 0 mm 0 mps 714 mmHg 54%
04:00 +26°C° 0 mm 1 mps 714 mmHg 56%
05:00 +25°C° 0 mm 1 mps 714 mmHg 58%
06:00 +25°C° 0 mm 1 mps 714 mmHg 60%
07:00 +28°C° 0 mm 1 mps 715 mmHg 55%
08:00 +30°C° 0 mm 1 mps 716 mmHg 50%
09:00 +33°C° 0 mm 1 mps 717 mmHg 46%
10:00 +34°C° 0 mm 1 mps 717 mmHg 42%
11:00 +37°C° 0 mm 2 mps 717 mmHg 38%
12:00 +38°C° 0 mm 2 mps 717 mmHg 34%
13:00 +38°C° 0 mm 2 mps 716 mmHg 35%
14:00 +36°C° 0 mm 1 mps 715 mmHg 36%
15:00 +36°C° 0 mm 1 mps 714 mmHg 37%
16:00 +35°C° 0 mm 1 mps 714 mmHg 41%
17:00 +34°C° 0 mm 1 mps 714 mmHg 45%
18:00 +32°C° 0 mm 1 mps 713 mmHg 49%
19:00 +31°C° 0 mm 1 mps 714 mmHg 50%
20:00 +30°C° 0 mm 1 mps 714 mmHg 50%
21:00 +28°C° 0 mm 1 mps 714 mmHg 51%
22:00 +28°C° 0 mm 1 mps 714 mmHg 50%
23:00 +28°C° 0 mm 1 mps 714 mmHg 50%

Pasado mañana, 5 Diciembre, Sábado

Tiempo Temperatura Precipitaciones Viento Presión Humedad
00:00 +27°C° 0 mm 1 mps 714 mmHg 50%
01:00 +27°C° 0 mm 1 mps 714 mmHg 52%
02:00 +24°C° 0 mm 0 mps 714 mmHg 53%
03:00 +24°C° 0 mm 0 mps 713 mmHg 55%
04:00 +23°C° 0 mm 0 mps 714 mmHg 56%
05:00 +23°C° 0 mm 0 mps 714 mmHg 57%
06:00 +25°C° 0 mm 1 mps 714 mmHg 59%
07:00 +28°C° 0 mm 1 mps 715 mmHg 54%
08:00 +31°C° 0 mm 1 mps 716 mmHg 49%
09:00 +33°C° 0 mm 1 mps 716 mmHg 45%
10:00 +35°C° 0 mm 1 mps 716 mmHg 42%
11:00 +36°C° 0 mm 1 mps 716 mmHg 39%
12:00 +38°C° 0 mm 2 mps 716 mmHg 36%
13:00 +37°C° 0 mm 1 mps 715 mmHg 37%
14:00 +36°C° 0 mm 1 mps 714 mmHg 39%
15:00 +36°C° 0 mm 1 mps 714 mmHg 41%
16:00 +34°C° 0.2 mm 2 mps 713 mmHg 51%
17:00 +30°C° 0.2 mm 3 mps 713 mmHg 62%
18:00 +28°C° 0.2 mm 3 mps 712 mmHg 73%
19:00 +27°C° 0.1 mm 3 mps 713 mmHg 74%
20:00 +26°C° 0.1 mm 3 mps 713 mmHg 75%
21:00 +25°C° 0.1 mm 2 mps 714 mmHg 76%
22:00 +25°C° 0.1 mm 2 mps 714 mmHg 77%
23:00 +25°C° 0.1 mm 2 mps 714 mmHg 77%

6 Diciembre, Domingo

Tiempo Temperatura Precipitaciones Viento Presión Humedad
00:00 +25°C° 0.1 mm 1 mps 713 mmHg 78%
01:00 +24°C° 1.1 mm 1 mps 713 mmHg 82%
02:00 +24°C° 1.1 mm 1 mps 713 mmHg 87%
03:00 +24°C° 1.1 mm 1 mps 713 mmHg 91%
04:00 +24°C° 1.3 mm 1 mps 713 mmHg 91%
05:00 +24°C° 1.3 mm 1 mps 713 mmHg 92%
06:00 +24°C° 1.3 mm 1 mps 714 mmHg 92%
07:00 +24°C° 2.4 mm 1 mps 714 mmHg 93%
08:00 +24°C° 2.4 mm 1 mps 715 mmHg 93%
09:00 +24°C° 2.4 mm 2 mps 715 mmHg 94%
10:00 +24°C° 1.5 mm 2 mps 715 mmHg 93%
11:00 +25°C° 1.5 mm 2 mps 715 mmHg 91%
12:00 +25°C° 1.5 mm 2 mps 715 mmHg 90%
13:00 +26°C° 0.2 mm 2 mps 715 mmHg 85%
14:00 +27°C° 0.2 mm 3 mps 714 mmHg 79%
15:00 +28°C° 0.2 mm 3 mps 714 mmHg 73%
16:00 +28°C° 0.1 mm 3 mps 713 mmHg 74%
17:00 +28°C° 0.1 mm 2 mps 713 mmHg 76%
18:00 +27°C° 0.1 mm 2 mps 713 mmHg 77%
19:00 +26°C° 0 mm 1 mps 713 mmHg 81%
20:00 +25°C° 0 mm 1 mps 713 mmHg 86%
21:00 +22°C° 0 mm 0 mps 713 mmHg 90%
22:00 +22°C° 0 mm 0 mps 714 mmHg 90%
23:00 +22°C° 0 mm 0 mps 714 mmHg 90%

7 Diciembre, Lunes

Tiempo Temperatura Precipitaciones Viento Presión Humedad
00:00 +22°C° 0 mm 0 mps 715 mmHg 89%
01:00 +22°C° 0.3 mm 0 mps 714 mmHg 92%
02:00 +21°C° 0.3 mm 0 mps 714 mmHg 94%
03:00 +21°C° 0.3 mm 0 mps 713 mmHg 96%
04:00 +21°C° 0.3 mm 0 mps 714 mmHg 96%
05:00 +23°C° 0.3 mm 1 mps 714 mmHg 96%
06:00 +23°C° 0.3 mm 1 mps 714 mmHg 96%
07:00 +24°C° 0 mm 1 mps 715 mmHg 89%
08:00 +26°C° 0 mm 1 mps 715 mmHg 83%
09:00 +28°C° 0 mm 1 mps 716 mmHg 77%
10:00 +29°C° 0.4 mm 1 mps 716 mmHg 71%
11:00 +31°C° 0.4 mm 1 mps 715 mmHg 65%
12:00 +32°C° 0.4 mm 1 mps 715 mmHg 58%
13:00 +32°C° 1.1 mm 2 mps 714 mmHg 61%
14:00 +31°C° 1.1 mm 2 mps 714 mmHg 64%
15:00 +31°C° 1.1 mm 2 mps 713 mmHg 67%
16:00 +30°C° 0.3 mm 2 mps 713 mmHg 71%
17:00 +29°C° 0.3 mm 1 mps 713 mmHg 74%
18:00 +29°C° 0.3 mm 1 mps 712 mmHg 77%
19:00 +28°C° 0.1 mm 1 mps 713 mmHg 79%
20:00 +27°C° 0.1 mm 1 mps 713 mmHg 80%
21:00 +26°C° 0.1 mm 1 mps 714 mmHg 81%
22:00 +26°C° 1.1 mm 1 mps 714 mmHg 85%
23:00 +25°C° 1.1 mm 1 mps 714 mmHg 88%

8 Diciembre, Martes

Tiempo Temperatura Precipitaciones Viento Presión Humedad
00:00 +24°C° 1.1 mm 1 mps 714 mmHg 92%
01:00 +22°C° 1.5 mm 0 mps 714 mmHg 93%
02:00 +22°C° 1.5 mm 0 mps 714 mmHg 94%
03:00 +22°C° 1.5 mm 0 mps 714 mmHg 95%
04:00 +22°C° 1 mm 0 mps 714 mmHg 95%
05:00 +21°C° 1 mm 0 mps 714 mmHg 96%
06:00 +23°C° 1 mm 1 mps 714 mmHg 96%
07:00 +25°C° 0.1 mm 1 mps 715 mmHg 92%
08:00 +26°C° 0.1 mm 1 mps 716 mmHg 89%
09:00 +27°C° 0.1 mm 1 mps 716 mmHg 85%
10:00 +28°C° 1.8 mm 1 mps 716 mmHg 82%
11:00 +29°C° 1.8 mm 2 mps 716 mmHg 79%
12:00 +30°C° 1.8 mm 2 mps 715 mmHg 75%
13:00 +30°C° 1.1 mm 2 mps 715 mmHg 74%
14:00 +30°C° 1.1 mm 2 mps 714 mmHg 73%
15:00 +30°C° 1.1 mm 2 mps 714 mmHg 72%
16:00 +29°C° 1 mm 1 mps 714 mmHg 75%
17:00 +29°C° 1 mm 1 mps 714 mmHg 79%
18:00 +28°C° 1 mm 1 mps 714 mmHg 82%
19:00 +27°C° 2.7 mm 1 mps 714 mmHg 86%
20:00 +25°C° 2.7 mm 2 mps 715 mmHg 90%
21:00 +24°C° 2.7 mm 2 mps 715 mmHg 94%
22:00 +24°C° 1.1 mm 2 mps 715 mmHg 94%
23:00 +23°C° 1.1 mm 2 mps 716 mmHg 95%
Mostrar más

Necesitamos Su Consentimiento

Meteoprog y nuestros Proveedores de Servicios pueden almacenar y acceder a sus datos personales como cookies, identificadores de dispositivo u otras tecnologías similares de su dispositivo y procesar dichos datos para personalizar contenido y anuncios, además de ofrecer funciones de redes sociales y analizar el tráfico.

  • Almacenar y/o acceder a información en su dispositivo

    Se puede almacenar o acceder a cookies, identificadores de dispositivo u otra información de su dispositivo para los fines anteriormente indicados.

  • Anuncios y contenido personalizados, medición de anuncios y contenido, percepciones del público, y desarrollo de productos

    Los anuncios y el contenido pueden personalizarse en base a su perfil. Se pueden añadir más datos para personalizar mejor los anuncios y contenidos. Se puede medir el rendimiento de los anuncios y contenidos. Se puede obtener la percepción sobre el público que ha visto los anuncios y contenidos. Dichos datos pueden usarse para desarrollar o mejorar la experiencia del usuario, sistemas y software.

Al hacer clic en ‘Estoy De Acuerdo’ usted permitirá el uso de las cookies, identificadores de dispositivo, balizas web u otras tecnologías similares indicadas. Su configuración puede cambiarse desde el navegador de su dispositivo.

Para ciertos fines, los intereses legítimos pueden ser considerados por encima del consentimiento. Puede leer más sobre ello en nuestra Política de Privacidad y Cookies.